RH
33 39 35 32 31 29 27 27 25 25 23 22 21 20 19 21 22 26 28 36 51 50 61 39 27 26 24 29 49 53 64 69 55 45 41 38 35 34 34 35 34 36 40 41
36 36 32 32 30 28 29 28 26 25 23 23 23 23 22 22 22 20 25 28 39 56 56 45 42 32 28 34 52 66 89 77 60 53 47 44 41 40 38 40 44 44 45 50
31 28 27 28 28 27 24 24 23 23 22 23 23 22 21 21 21 20 20 26 29 51 66 48 40 31 33 40 64 91 97 80 63 57 53 47 46 45 44 44 46 52 53 48
25 21 23 26 22 20 20 20 22 27 26 24 21 22 21 19 20 21 23 26 26 50 72 72 63 49 34 35 51 58 67 74 69 64 56 51 51 50 54 56 56 57 51 46
26 22 26 27 27 23 21 24 24 29 28 24 23 21 20 19 20 21 25 30 26 46 71 79 45 23 28 30 35 48 64 73 72 66 58 55 56 62 63 64 64 63 49 49
25 22 22 20 24 22 22 25 26 26 26 30 25 22 21 19 22 21 31 31 27 23 38 40 25 24 24 23 35 46 58 72 73 66 60 63 68 68 63 58 48 52 53 52
28 26 24 26 26 28 26 24 33 33 32 33 23 23 22 25 25 31 39 37 32 27 29 28 25 21 34 33 32 41 54 68 74 67 67 74 70 54 53 50 49 49 52 56
22 22 20 20 19 23 26 24 32 36 34 24 19 19 25 24 28 32 42 47 50 31 30 26 25 24 28 30 40 45 51 70 74 69 74 74 62 58 58 59 57 58 60 65
23 24 23 25 21 28 28 25 23 26 27 30 26 23 21 31 36 46 45 47 59 34 29 25 25 32 42 37 30 35 53 70 74 70 74 64 60 59 58 54 56 56 64 69
31 33 32 30 27 26 28 26 28 28 44 46 29 23 23 39 50 54 47 48 53 53 28 22 29 29 45 36 33 37 50 66 70 71 76 66 62 57 52 48 45 52 64 68
32 35 37 36 36 30 28 37 31 27 27 41 54 50 43 48 73 66 57 47 36 39 51 45 44 48 50 42 34 36 47 62 68 73 76 64 60 59 60 61 54 59 68 70
36 38 42 43 42 39 35 37 37 40 42 45 56 46 40 53 57 54 60 51 47 41 36 35 37 40 55 53 44 40 46 59 65 63 61 59 61 69 74 74 67 67 70 75
53 50 49 55 44 41 33 41 54 52 56 90 83 75 47 47 47 48 52 50 46 40 51 53 50 49 58 65 58 52 50 62 64 64 62 63 72 75 78 82 77 75 76 77
65 63 58 65 58 56 60 66 64 70 73 94 70 50 46 42 41 43 39 52 38 36 45 60 59 49 40 57 90 71 63 67 71 65 66 74 82 82 75 87 85 86 82 78
84 89 65 65 62 59 55 51 59 61 60 96 69 72 63 43 36 33 32 31 34 35 39 48 55 51 45 44 50 76 75 81 78 77 77 77 64 59 68 94 94 94 84 69
96 92 87 77 75 68 60 57 56 54 54 49 47 48 47 39 35 34 34 32 35 38 39 40 42 45 49 49 47 48 46 57 88 96 87 64 55 60 76 88 98 95 85 46
99 96 96 88 81 76 80 62 56 51 49 44 42 39 39 40 38 37 38 42 42 48 48 60 64 64 65 59 57 54 41 37 48 79 75 51 51 69 83 98 97 95 89 29
88 90 98 96 85 92 57 61 58 58 54 53 51 52 40 36 35 37 39 51 57 60 55 62 68 88 79 74 57 66 54 42 55 59 41 46 64 82 94 98 96 96 84 21
87 87 94 89 87 70 56 48 42 62 60 64 44 44 44 52 54 64 63 96 76 70 65 67 68 74 76 67 57 70 66 66 64 63 65 71 81 96 96 96 96 97 60 20
79 84 92 91 75 67 47 48 58 65 59 51 53 67 63 90 67 66 73 80 92 77 63 57 67 75 68 66 77 76 74 73 79 85 84 94 97 99 97 98 97 95 32 22
88 96 96 97 94 71 55 52 60 69 52 57 71 68 81 89 92 75 81 97 87 68 62 61 60 59 61 61 53 46 42 40 62 89 97 98 99 97 97 97 96 82 24 24
59 87 92 88 83 80 61 79 73 72 76 71 61 77 92 73 48 54 63 95 95 78 65 60 59 61 53 52 48 48 41 42 70 99 97 92 99 97 96 97 96 55 21 27
75 68 65 72 68 70 71 64 64 68 84 78 75 90 80 54 66 83 88 91 95 92 71 67 66 62 71 75 66 68 41 44 62 98 99 98 97 97 97 96 78 31 21 27
86 82 96 70 59 56 57 61 63 69 65 82 73 87 74 73 83 88 99 97 94 98 79 76 82 83 79 69 69 90 79 60 66 97 100 99 98 97 97 85 37 21 22 28
96 94 70 73 74 70 64 64 65 68 78 74 72 90 81 66 72 68 86 99 90 98 94 90 80 84 85 84 84 74 95 68 68 83 97 99 98 96 88 52 23 19 22 32
67 63 64 67 70 81 78 71 82 87 90 87 94 95 78 88 86 43 58 94 94 97 100 92 57 57 67 76 67 51 54 68 78 91 97 98 95 88 61 37 25 22 31 45
Wind_Speed
27 19 23 19 19 22 26 25 24 27 29 31 32 32 27 26 27 24 21 21 22 21 24 23 23 25 28 24 26 25 24 24 24 23 23 23 22 22 22 22 22 21 21 22
18 24 21 21 22 20 18 26 30 30 25 26 31 36 32 29 30 28 28 22 26 25 27 29 28 29 30 29 29 27 25 25 25 23 23 20 20 21 21 20 19 21 23 24
16 19 16 16 18 20 20 21 25 29 25 25 27 38 33 31 31 32 26 24 13 27 31 32 32 30 30 27 27 25 26 24 25 21 21 21 21 21 21 22 23 23 24 25
12 12 17 17 20 18 24 19 22 20 20 27 19 27 31 23 19 21 30 26 28 21 28 30 29 26 23 25 25 29 28 25 22 22 20 20 20 21 22 21 24 26 25 22
20 16 17 21 22 20 26 19 22 20 24 28 28 24 36 23 24 25 29 27 24 20 25 26 26 20 20 23 22 25 25 24 22 22 20 21 20 20 21 23 25 21 17 18
29 26 25 25 24 22 23 23 25 26 26 22 29 27 36 29 18 15 29 24 21 26 31 26 19 20 21 22 20 21 23 22 23 22 22 20 20 21 20 18 16 17 17 17
27 27 25 24 27 23 22 24 17 15 18 14 24 26 31 10 10 9 16 18 17 17 11 16 19 18 21 19 18 20 23 23 23 23 21 19 17 15 13 12 13 15 17 19
32 35 23 25 32 29 23 25 22 16 13 16 25 16 9 8 11 15 15 13 12 16 15 13 21 21 23 20 20 20 22 22 22 23 22 19 16 13 13 12 14 17 20 21
35 39 29 26 21 17 21 29 30 32 34 25 31 36 36 16 17 14 14 15 13 15 19 18 22 21 22 15 16 20 21 22 23 22 19 17 15 13 12 13 15 19 21 22
25 29 31 26 28 29 29 28 24 29 15 21 21 28 21 15 10 14 14 14 9 11 16 21 23 23 22 17 17 19 21 21 22 21 20 20 15 13 13 14 16 19 21 22
23 26 31 27 31 33 29 26 31 33 31 13 11 13 7 15 12 12 8 7 14 18 20 17 18 22 25 19 17 18 19 18 20 21 21 19 16 15 17 17 18 18 20 19
26 28 31 30 26 31 30 31 32 30 20 35 24 23 14 6 10 11 14 13 9 10 19 22 25 29 27 23 21 19 19 19 21 21 20 20 19 20 20 20 20 20 17 17
31 27 23 22 28 32 36 27 22 30 27 27 15 16 16 16 9 9 13 15 15 23 23 21 22 25 26 26 27 23 22 24 25 26 24 23 23 23 22 22 22 24 16 15
26 25 26 20 21 19 29 27 28 25 24 18 26 29 30 28 21 18 21 23 23 22 23 21 22 26 25 23 31 27 26 28 30 28 27 23 26 23 24 26 23 23 18 14
25 28 27 32 35 35 39 35 30 28 29 20 31 26 28 26 26 29 29 27 30 28 23 26 25 27 29 28 28 32 34 30 32 31 28 26 26 25 27 25 26 21 19 14
31 36 28 36 30 30 34 37 35 36 33 33 33 37 46 42 37 33 32 31 28 25 25 28 34 33 30 33 34 32 35 30 31 31 28 26 27 27 26 26 27 17 18 15
21 18 18 36 28 28 28 41 38 39 38 36 36 35 33 31 32 31 24 22 22 22 22 21 20 31 28 25 28 31 32 35 35 29 29 29 28 27 26 25 24 18 18 16
32 29 28 19 16 8 26 20 22 27 28 27 30 31 24 26 27 24 20 24 23 22 20 21 21 23 26 23 22 26 25 27 33 31 32 30 28 28 25 26 23 20 19 17
33 33 30 28 24 25 31 21 19 18 26 22 15 19 21 19 25 14 26 20 22 23 25 27 28 25 34 29 22 21 20 20 24 28 29 28 29 25 22 21 23 20 19 19
31 36 36 24 15 15 27 14 9 6 14 10 11 13 21 16 18 20 23 25 22 19 23 20 18 19 23 24 22 21 20 20 21 22 22 23 23 20 19 22 22 21 21 20
13 32 35 32 20 23 22 20 12 10 5 9 9 13 13 17 15 18 24 9 2 9 10 10 11 13 15 16 14 14 15 15 15 16 14 18 20 21 23 23 22 20 21 19
17 10 11 11 15 19 17 13 17 7 6 10 16 12 14 23 26 25 25 15 8 12 11 12 12 12 11 12 11 12 14 15 18 18 19 21 22 22 22 20 20 20 18 17
24 24 14 11 8 13 16 14 14 11 11 13 15 17 27 30 30 23 19 18 14 16 14 14 12 10 13 12 14 13 13 14 15 16 20 19 18 19 19 19 18 18 17 19
21 25 10 9 11 13 16 16 15 17 17 20 20 20 29 28 29 18 16 20 22 23 20 17 15 13 14 14 17 19 16 12 13 16 18 18 17 17 17 17 18 18 17 19
17 4 8 13 14 18 19 18 18 20 18 24 20 23 24 26 21 25 22 19 26 23 18 15 9 11 13 13 14 12 12 13 14 15 15 15 17 16 16 17 18 18 18 18
9 12 15 20 17 21 18 21 15 15 17 17 19 20 23 22 26 26 24 21 23 22 16 12 10 10 12 13 13 10 12 13 13 14 15 16 15 16 16 18 18 17 16 17
Wind_Direction
282 267 260 269 275 279 290 287 281 284 290 294 285 280 273 260 262 250 240 245 244 245 239 243 246 247 249 245 241 243 244 245 249 252 255 257 260 261 262 264 263 264 269 278
267 255 267 271 275 273 272 284 285 284 281 276 277 273 270 264 259 257 244 232 246 236 246 250 242 241 245 242 239 239 238 241 245 248 254 256 253 254 255 257 260 269 276 286
264 268 268 274 275 270 272 275 283 284 288 281 288 279 273 262 255 257 253 225 224 235 239 255 261 257 253 251 247 244 243 245 250 257 253 252 251 253 257 260 266 277 285 285
259 269 258 262 267 265 271 270 276 277 277 278 276 288 278 270 260 260 225 221 215 223 230 246 266 275 264 256 250 250 250 252 252 252 252 251 250 254 257 266 272 277 278 277
261 269 270 263 264 263 269 267 264 268 273 281 273 267 275 268 260 240 216 215 227 206 232 244 265 270 266 262 257 256 252 249 250 251 246 245 251 256 266 270 273 272 272 275
272 269 264 269 263 268 271 271 269 268 266 256 265 261 272 271 268 237 192 208 222 217 230 249 258 269 275 276 272 262 251 245 243 240 239 243 249 262 271 266 273 274 278 288
283 275 271 260 264 267 264 264 274 264 244 248 259 251 251 208 217 198 191 202 206 199 221 264 276 276 274 273 272 261 249 241 236 236 235 236 257 260 263 273 278 281 289 295
277 284 278 270 266 256 256 255 234 270 274 278 282 280 328 243 199 196 170 186 219 217 245 261 276 278 269 269 266 260 252 236 231 231 232 248 246 258 269 276 286 292 294 296
279 277 281 269 287 243 257 259 271 273 267 277 277 279 284 234 205 194 201 190 197 247 268 272 270 271 268 258 264 263 251 234 228 230 234 236 245 260 271 286 293 296 294 294
279 291 271 273 273 262 255 261 269 272 278 263 267 278 275 158 155 193 208 202 191 257 253 272 260 269 262 255 248 252 250 235 226 227 236 238 249 264 276 286 296 297 292 291
280 274 275 269 259 265 268 239 257 259 263 268 257 270 205 255 232 178 209 244 237 261 252 254 263 266 252 253 252 252 249 230 224 233 242 242 255 270 277 282 287 292 290 284
274 284 279 264 264 261 271 266 267 274 249 265 293 270 254 224 180 233 243 231 244 270 278 274 284 273 262 252 249 250 247 241 242 245 246 251 258 264 272 280 288 295 285 279
272 263 281 281 265 260 263 276 285 273 291 235 238 264 280 258 243 265 254 235 251 309 273 265 263 268 266 250 251 247 247 244 246 250 250 253 256 263 271 275 282 288 274 271
268 260 256 254 254 275 287 292 289 288 277 301 277 276 264 262 274 278 303 291 287 286 278 267 256 264 265 259 255 252 244 245 246 246 252 259 263 265 274 275 275 281 267 261
252 264 258 259 258 264 269 276 277 274 270 257 282 285 275 279 282 288 289 287 277 271 259 274 270 266 268 267 260 255 251 245 247 248 246 253 260 268 270 270 268 266 257 249
253 252 253 260 257 258 266 265 261 264 264 267 269 278 282 286 289 289 283 277 270 263 257 248 266 270 265 265 263 263 258 253 253 251 247 256 264 265 266 267 259 253 247 239
280 264 241 251 256 262 258 253 255 263 260 263 268 272 281 280 279 281 274 269 266 265 261 252 246 257 263 260 261 267 264 253 249 248 251 259 263 264 265 262 248 246 240 233
251 255 259 267 272 256 264 262 257 255 265 263 262 268 279 276 277 281 282 269 262 260 249 251 241 248 258 253 263 266 264 252 245 246 253 255 257 259 257 253 245 240 234 229
241 242 254 254 256 265 269 269 273 265 270 265 258 281 272 275 265 252 258 251 243 237 230 235 243 236 251 259 264 260 254 252 249 248 252 252 252 255 253 249 243 236 227 227
243 234 234 241 254 260 272 268 260 255 270 275 262 282 282 271 275 268 265 293 233 250 246 247 250 233 245 261 259 255 258 258 258 254 253 248 248 243 243 244 235 225 223 226
255 234 227 229 245 260 270 268 230 226 215 248 257 269 282 307 312 313 306 299 186 245 242 243 245 244 249 252 254 255 255 255 248 244 239 247 249 246 243 234 226 218 225 227
256 247 234 235 249 266 261 252 248 243 292 270 289 264 286 277 286 297 286 288 225 251 246 251 254 249 243 250 255 263 262 253 246 235 235 238 242 243 240 227 221 223 228 230
256 233 233 222 228 296 318 303 269 300 293 285 290 290 290 294 306 293 258 264 253 241 247 253 251 244 273 264 254 254 260 250 248 233 233 240 241 243 231 224 220 228 229 232
260 250 248 248 261 271 282 292 292 289 274 284 287 286 285 294 299 306 291 236 246 235 239 245 245 244 255 252 256 301 246 253 246 232 235 239 242 233 222 222 226 232 231 238
301 275 270 272 281 283 283 281 286 285 277 280 279 275 283 292 304 307 314 255 247 215 238 250 238 242 252 258 269 279 251 233 239 236 229 232 232 223 222 227 232 237 237 243
288 291 291 292 296 288 287 285 291 286 287 277 294 274 278 280 291 300 299 299 229 214 233 238 242 249 256 259 266 262 242 239 236 230 229 229 227 227 229 235 241 244 246 252